Edwards AFB North Base, CA

11:42 AM PST on November 14, 2019 (GMT -0800)
Edwards AFB North Base

Weather History for K9L2 - September, 2019

Change the Weather History Date:

Thursday, September 12, 2019

  Actual Average (WUND) Record (WUND)
Temperature  
Mean Temperature 72 °F -  
Max Temperature 94 °F - - (-1)
Min Temperature 49 °F - - (-1)
Cooling Degree Days 6    
Growing Degree Days 22 (Base 50)    
Moisture  
Dew Point 26 °F    
Average Humidity 22    
Maximum Humidity 49    
Minimum Humidity 7    
Precipitation  
Precipitation 0.00 in - - ()
Sea Level Pressure  
Sea Level Pressure 30.02 in    
Wind  
Wind Speed 4 mph ()    
Max Wind Speed 17 mph    
Max Gust Speed 22 mph    
Visibility 7.7 miles    
Events      
Averages and records for this station are not official NWS values.
T = Trace of Precipitation, MM = Missing Value Source: Averaged Metar Reports

Daily Weather History Graph

Daily Weather History Graph

Search for Another Location

Airport or City:

Astronomy

Sep. 12, 2019 Rise Set
Actual Time 6:32 AM PDT 7:02 PM PDT
Civil Twilight 6:06 AM PDT 7:28 PM PDT
Nautical Twilight 5:36 AM PDT 7:58 PM PDT
Astronomical Twilight 5:06 AM PDT 8:28 PM PDT
Moon 6:44 PM PDT (9/12) 5:02 AM PDT (9/12)
Length of Visible Light 13h 21m
Length of Day
12h 30m
Waxing Gibbous, 98% of the Moon is Illuminated
Sep 12
Waxing Gibbous
Sep 13
Full
Sep 21
Last Quarter
Sep 28
New
Oct 5
First Quarter

Hourly Weather History & Observations

Time (PDT) Temp. Dew Point Humidity Pressure Visibility Wind Dir Wind Speed Gust Speed Precip Events Conditions
12:58 AM 58.8 °F 33.4 °F 38% 29.99 in 9.0 mi ESE 4.6 mph - N/A   Clear
1:58 AM 57.2 °F 33.6 °F 41% 30.01 in 10.0 mi Calm Calm - N/A   Clear
2:58 AM 54.5 °F 34.2 °F 46% 30.01 in 9.0 mi Calm Calm - N/A   Clear
3:58 AM 51.3 °F 32.7 °F 49% 30.02 in 10.0 mi NW 3.5 mph - N/A   Clear
4:58 AM 51.6 °F 31.3 °F 46% 30.03 in 10.0 mi NNW 3.5 mph - N/A   Clear
5:58 AM 49.1 °F 29.8 °F 47% 30.04 in 10.0 mi Calm Calm - N/A   Clear
6:58 AM 50.4 °F 30.9 °F 47% 30.05 in 9.0 mi Calm Calm - N/A   Clear
7:58 AM 54.0 °F 27.3 °F 36% 30.08 in 9.0 mi Calm Calm - N/A   Clear
8:58 AM 61.2 °F 35.4 °F 38% 30.09 in 9.0 mi Calm Calm - N/A   Clear
9:58 AM 68.2 °F 36.1 °F 31% 30.09 in 7.0 mi Calm Calm - N/A   Clear
10:58 AM 78.6 °F 34.0 °F 20% 30.07 in 7.0 mi Calm Calm - N/A   Clear
11:28 AM 87.8 °F 26.6 °F 11% 30.06 in 6.0 mi NE 10.4 mph - N/A   Haze
11:33 AM 87.8 °F 24.8 °F 10% 30.05 in 6.0 mi East 11.5 mph 18.4 mph N/A   Haze
11:58 AM 90.1 °F 25.2 °F 10% 30.05 in 6.0 mi ENE 15.0 mph - N/A   Haze
12:26 PM 91.4 °F 26.6 °F 10% 30.04 in 7.0 mi ENE 17.3 mph 21.9 mph N/A   Clear
12:41 PM 91.4 °F 24.8 °F 9% 30.04 in 6.0 mi ENE 8.1 mph 20.7 mph N/A   Haze
12:58 PM 92.1 °F 25.2 °F 9% 30.03 in 6.0 mi ENE 16.1 mph - N/A   Haze
1:58 PM 92.3 °F 22.5 °F 8% 30.00 in 6.0 mi ENE 10.4 mph 21.9 mph N/A   Haze
2:58 PM 94.1 °F 20.7 °F 7% 29.98 in 6.0 mi East 8.1 mph 21.9 mph N/A   Haze
4:58 PM 93.0 °F 19.9 °F 7% 29.95 in 6.0 mi East 3.5 mph - N/A   Haze
5:58 PM 91.8 °F 20.3 °F 7% 29.94 in 6.0 mi ENE 8.1 mph - N/A   Haze
6:58 PM 86.9 °F 20.7 °F 9% 29.96 in 6.0 mi East 6.9 mph - N/A   Haze
7:28 PM 80.6 °F 19.4 °F 10% 29.96 in 7.0 mi East 8.1 mph - N/A   Clear
7:58 PM 79.2 °F 20.1 °F 11% 29.98 in 8.0 mi East 5.8 mph - N/A   Clear
8:58 PM 74.7 °F 22.8 °F 14% 29.98 in 8.0 mi NNW 5.8 mph - N/A   Clear
9:58 PM 70.2 °F 20.3 °F 15% 30.04 in 9.0 mi Calm Calm - N/A   Clear
10:58 PM 67.1 °F 19.4 °F 16% 30.04 in 9.0 mi WNW 4.6 mph - N/A   Clear
11:58 PM 64.4 °F 18.7 °F 17% 30.04 in 9.0 mi West 3.5 mph - N/A   Clear